Location: Newark
(48.5667°N, 12.8167°E)
Time: 19:48:59
(UTC+00:00)

Envisat - Visible Passes

Search period start: 18 October 2019 00:00
Search period end: 28 October 2019 00:00
Orbit: 764 x 766 km, 98.1° (Epoch: 18 October)

Date Brightness Start Highest point End Pass type
(mag) Time Alt. Az. Time Alt. Az. Time Alt. Az.
18 Oct 3.0 17:06:17 10° SSE 17:11:22 88° W 17:16:29 10° NNW visible
18 Oct 6.1 18:48:52 10° WSW 18:51:08 13° W 18:53:26 10° WNW visible
19 Oct 5.2 18:09:41 10° SSW 18:13:55 26° W 18:18:11 10° NW visible
20 Oct 6.5 04:36:53 10° ENE 04:38:45 12° E 04:40:37 10° ESE visible
20 Oct 3.8 17:31:57 10° S 17:36:55 53° W 17:41:55 10° NNW visible
21 Oct 3.0 16:55:03 10° SSE 17:00:06 76° ENE 17:05:12 10° N visible
21 Oct 5.9 18:36:36 10° SW 18:39:43 16° W 18:42:51 10° NW visible
22 Oct 6.0 05:00:53 10° NE 05:04:36 20° E 05:08:18 10° SE visible
22 Oct 4.8 17:58:01 10° SSW 18:02:34 32° W 18:07:08 10° NNW visible
23 Oct 3.4 17:20:34 10° S 17:25:38 66° W 17:30:42 10° NNW visible
24 Oct 3.0 16:43:52 10° SSE 16:48:52 62° ENE 16:53:54 10° N visible
24 Oct 5.6 18:24:38 10° SW 18:28:19 20° W 18:32:01 10° NW visible
25 Oct 6.1 04:50:03 10° NE 04:53:12 16° E 04:56:20 10° SE visible
25 Oct 4.4 17:46:28 10° SSW 17:51:13 40° W 17:56:01 10° NNW visible
26 Oct 3.1 17:09:15 10° SSE 17:14:20 82° WSW 17:19:28 10° NNW visible
26 Oct 6.2 18:52:22 10° WSW 18:54:11 12° W 18:56:00 10° WNW visible
27 Oct 3.2 16:32:45 10° SE 16:37:38 50° ENE 16:42:33 10° N visible
27 Oct 5.3 18:12:49 10° SSW 18:16:56 24° W 18:21:04 10° NW visible
